This is the latest recevied weather packets stored in our database for station/object N3OZD-10. If no packets are shown the sender has not sent any weather packets the latest 10 day(s).
| Time | Temp. | Humidity | Pressure | Rain* | Wind** | Luminosity | Snow |
|---|---|---|---|---|---|---|---|
| 1777601253 | 10.56° C | 64% | 1012.8 hPa | 0 mm | - | - | - |
| 1777600955 | 10.56° C | 63% | 1012.9 hPa | 0 mm | - | - | - |
| 1777600655 | 11.11° C | 63% | 1012.9 hPa | 0 mm | - | - | - |
| 1777600353 | 11.11° C | 62% | 1012.9 hPa | 0 mm | - | - | - |
| 1777600053 | 11.11° C | 63% | 1012.9 hPa | 0 mm | - | - | - |
| 1777599754 | 11.11° C | 63% | 1012.9 hPa | 0 mm | - | - | - |
| 1777599453 | 11.11° C | 63% | 1012.8 hPa | 0 mm | - | - | - |
| 1777599154 | 11.11° C | 62% | 1012.6 hPa | 0 mm | - | - | - |
| 1777598853 | 11.11° C | 62% | 1012.5 hPa | 0 mm | - | - | - |
| 1777598553 | 11.67° C | 61% | 1012.4 hPa | 0 mm | - | - | - |
| 1777598254 | 11.67° C | 62% | 1012.3 hPa | 0 mm | - | - | - |
| 1777597953 | 11.67° C | 61% | 1012.3 hPa | 0 mm | - | - | - |
| 1777597653 | 11.67° C | 61% | 1012.2 hPa | 0 mm | - | - | - |
| 1777597353 | 11.67° C | 60% | 1012.2 hPa | 0 mm | - | - | - |
| 1777597054 | 11.67° C | 60% | 1012.1 hPa | 0 mm | - | - | - |
| 1777596755 | 11.67° C | 60% | 1012 hPa | 0 mm | - | - | - |
| 1777596453 | 11.67° C | 60% | 1011.9 hPa | 0 mm | - | - | - |
| 1777596153 | 12.22° C | 59% | 1011.9 hPa | 0 mm | - | - | - |
| 1777595853 | 12.22° C | 57% | 1011.8 hPa | 0 mm | - | - | - |
| 1777595553 | 12.22° C | 56% | 1011.7 hPa | 0 mm | - | - | - |
| 1777595254 | 12.22° C | 56% | 1011.6 hPa | 0 mm | - | - | - |
| 1777594953 | 12.78° C | 55% | 1011.5 hPa | 0 mm | - | - | - |
| 1777594654 | 13.33° C | 55% | 1011.2 hPa | 0 mm | - | - | - |
| 1777594355 | 13.33° C | 57% | 1011 hPa | 0 mm | - | - | - |
| 1777594053 | 13.33° C | 61% | 1010.9 hPa | 0 mm | - | - | - |
* Rain latest hour (hover to see other rain measurements)
** Current wind speed in m/s (hover to see current wind gust speed)